Location: Domont
(49.0278°N, 2.3264°E)
Time: 02:02:54
(UTC+00:00)

ZACube-1 - Pass Details

Date: 07 July 2022
Orbit: 581 x 661 km, 97.6° (Epoch: 17 August)

Event Time Altitude Azimuth Distance (km) Brightness Sun altitude
Rises 02:21:33 0° 31° (NNE) 2,978 ? -11.3°
Reaches altitude 10° 02:25:05 10° 61° (ENE) 2,074 ? -11.0°
Maximum altitude 02:27:02 13° 87° (E) 1,906 ? -10.8°
Drops below altitude 10° 02:29:00 10° 112° (ESE) 2,076 ? -10.6°
Sets 02:32:32 0° 142° (SE) 2,986 ? -10.3°
